This is the latest recevied weather packets stored in our database for station/object SP9TKN-1. If no packets are shown the sender has not sent any weather packets the latest 10 day(s).
| Time | Temp. | Humidity | Pressure | Rain* | Wind** | Luminosity | Snow |
|---|---|---|---|---|---|---|---|
| 1777678264 | 11.67° C | 56% | 1026 hPa | - | - | - | - |
| 1777677364 | 11.67° C | 55% | 1025.9 hPa | - | - | - | - |
| 1777676464 | 11.67° C | 53% | 1026 hPa | - | - | - | - |
| 1777675564 | 12.22° C | 51% | 1026 hPa | - | - | - | - |
| 1777674664 | 12.22° C | 51% | 1026 hPa | - | - | - | - |
| 1777673764 | 12.22° C | 50% | 1026 hPa | - | - | - | - |
| 1777672864 | 12.78° C | 52% | 1026 hPa | - | - | - | - |
| 1777671964 | 12.78° C | 50% | 1026 hPa | - | - | - | - |
| 1777671064 | 12.78° C | 49% | 1025.8 hPa | - | - | - | - |
| 1777670163 | 13.33° C | 47% | 1025.9 hPa | - | - | - | - |
| 1777669263 | 13.33° C | 45% | 1025.9 hPa | - | - | - | - |
| 1777668364 | 13.89° C | 45% | 1025.9 hPa | - | - | - | - |
| 1777667462 | 13.89° C | 43% | 1025.8 hPa | - | - | - | - |
| 1777666562 | 14.44° C | 42% | 1025.8 hPa | - | - | - | - |
| 1777665663 | 14.44° C | 41% | 1025.8 hPa | - | - | - | - |
| 1777664763 | 14.44° C | 39% | 1025.6 hPa | - | - | - | - |
| 1777663863 | 15° C | 39% | 1025.6 hPa | - | - | - | - |
| 1777662963 | 15° C | 38% | 1025.6 hPa | - | - | - | - |
| 1777662064 | 15.56° C | 38% | 1025.5 hPa | - | - | - | - |
| 1777661166 | 15.56° C | 37% | 1025.4 hPa | - | - | - | - |
| 1777660263 | 16.11° C | 36% | 1025.3 hPa | - | - | - | - |
| 1777659365 | 16.11° C | 36% | 1025.2 hPa | - | - | - | - |
| 1777657564 | 16.67° C | 34% | 1024.9 hPa | - | - | - | - |
| 1777656664 | 17.22° C | 33% | 1024.7 hPa | - | - | - | - |
| 1777654865 | 17.22° C | 32% | 1024.6 hPa | - | - | - | - |
* Rain since midnight (hover to see other rain measurements)
** Current wind speed in m/s (hover to see current wind gust speed)